TimeEST,TemperatureF,Dew PointF,Humidity,Sea Level PressureIn,VisibilityMPH,Wind Direction,Wind SpeedMPH,Gust SpeedMPH,PrecipitationIn,Events,Conditions,WindDirDegrees,DateUTC
12:15 AM,44.6,42.8,93,30.18,2.5,Calm,Calm,-,N/A,,Clear,0,2012-12-04 05:15:00
12:35 AM,44.6,42.8,93,30.18,2.0,Calm,Calm,-,N/A,,Clear,0,2012-12-04 05:35:00
1:15 AM,44.6,42.8,93,30.18,2.5,Calm,Calm,-,N/A,,Clear,0,2012-12-04 06:15:00
1:35 AM,42.8,42.8,100,30.18,5.0,Calm,Calm,-,N/A,,Clear,0,2012-12-04 06:35:00
1:55 AM,42.8,42.8,100,30.18,4.0,Calm,Calm,-,N/A,,Clear,0,2012-12-04 06:55:00
2:15 AM,42.8,41.0,93,30.18,1.2,Calm,Calm,-,N/A,,Mist,0,2012-12-04 07:15:00
2:35 AM,42.8,41.0,93,30.19,7.0,Calm,Calm,-,N/A,,Clear,0,2012-12-04 07:35:00
2:55 AM,42.8,41.0,93,30.19,1.8,Calm,Calm,-,N/A,,Mist,0,2012-12-04 07:55:00
3:15 AM,42.8,41.0,93,30.19,5.0,Calm,Calm,-,N/A,,Scattered Clouds,0,2012-12-04 08:15:00
3:55 AM,42.8,42.8,100,30.18,1.5,Calm,Calm,-,N/A,,Mist,0,2012-12-04 08:55:00
4:15 AM,41.0,41.0,100,30.18,3.0,Calm,Calm,-,N/A,,Clear,0,2012-12-04 09:15:00
4:35 AM,42.8,41.0,93,30.17,5.0,Calm,Calm,-,N/A,,Clear,0,2012-12-04 09:35:00
4:55 AM,41.0,41.0,100,30.17,10.0,Calm,Calm,-,N/A,,Clear,0,2012-12-04 09:55:00
5:15 AM,41.0,41.0,100,30.17,5.0,Calm,Calm,-,N/A,,Clear,0,2012-12-04 10:15:00
5:35 AM,41.0,41.0,100,30.17,5.0,Calm,Calm,-,N/A,,Scattered Clouds,0,2012-12-04 10:35:00
5:55 AM,42.8,42.8,100,30.17,5.0,Calm,Calm,-,N/A,,Scattered Clouds,0,2012-12-04 10:55:00
6:15 AM,42.8,41.0,93,30.16,5.0,Calm,Calm,-,N/A,,Scattered Clouds,0,2012-12-04 11:15:00
6:35 AM,42.8,42.8,100,30.16,7.0,Calm,Calm,-,N/A,,Scattered Clouds,0,2012-12-04 11:35:00
6:55 AM,42.8,42.8,100,30.17,7.0,Calm,Calm,-,N/A,,Mostly Cloudy,0,2012-12-04 11:55:00
7:15 AM,44.6,42.8,93,30.17,7.0,Calm,Calm,-,N/A,,Overcast,0,2012-12-04 12:15:00
7:35 AM,42.8,42.8,100,30.17,7.0,Calm,Calm,-,N/A,,Mostly Cloudy,0,2012-12-04 12:35:00
7:55 AM,42.8,42.8,100,30.17,5.0,Calm,Calm,-,N/A,,Scattered Clouds,0,2012-12-04 12:55:00
8:15 AM,46.4,44.6,93,30.17,10.0,Calm,Calm,-,N/A,,Scattered Clouds,0,2012-12-04 13:15:00
8:35 AM,50.0,46.4,87,30.17,10.0,South,3.5,-,N/A,,Scattered Clouds,190,2012-12-04 13:35:00
8:55 AM,55.4,50.0,82,30.17,10.0,SSW,3.5,-,N/A,,Mostly Cloudy,210,2012-12-04 13:55:00
9:15 AM,55.4,50.0,82,30.17,10.0,SW,3.5,-,N/A,,Overcast,220,2012-12-04 14:15:00
9:35 AM,55.4,50.0,82,30.18,10.0,SSW,4.6,-,N/A,,Overcast,210,2012-12-04 14:35:00
9:55 AM,59.0,50.0,72,30.18,10.0,SW,3.5,-,N/A,,Overcast,220,2012-12-04 14:55:00
10:15 AM,59.0,51.8,77,30.18,10.0,WSW,3.5,-,N/A,Rain,Light Rain,240,2012-12-04 15:15:00
10:35 AM,59.0,51.8,77,30.17,3.0,Calm,Calm,-,N/A,Rain,Light Rain,0,2012-12-04 15:35:00
10:55 AM,59.0,51.8,77,30.16,10.0,South,4.6,-,N/A,,Overcast,180,2012-12-04 15:55:00
11:15 AM,60.8,51.8,72,30.16,10.0,SW,6.9,-,N/A,,Overcast,220,2012-12-04 16:15:00
11:35 AM,60.8,51.8,72,30.15,10.0,SW,5.8,-,N/A,,Overcast,230,2012-12-04 16:35:00
11:55 AM,60.8,51.8,72,30.14,7.0,SW,8.1,-,N/A,Rain,Light Rain,230,2012-12-04 16:55:00
12:15 PM,60.8,53.6,77,30.13,5.0,SW,3.5,-,N/A,Rain,Light Rain,230,2012-12-04 17:15:00
12:35 PM,59.0,53.6,82,30.12,7.0,SSW,3.5,-,N/A,Rain,Light Rain,210,2012-12-04 17:35:00
12:55 PM,60.8,55.4,82,30.11,10.0,SW,4.6,-,N/A,,Overcast,220,2012-12-04 17:55:00
1:15 PM,60.8,55.4,82,30.10,10.0,Calm,Calm,-,N/A,,Overcast,0,2012-12-04 18:15:00
1:35 PM,60.8,55.4,82,30.09,10.0,SSW,3.5,-,N/A,Rain,Light Rain,210,2012-12-04 18:35:00
1:55 PM,62.6,55.4,77,30.09,10.0,SW,8.1,-,N/A,,Overcast,220,2012-12-04 18:55:00
2:15 PM,62.6,53.6,72,30.09,10.0,SW,8.1,-,N/A,,Overcast,220,2012-12-04 19:15:00
2:35 PM,62.6,53.6,72,30.09,10.0,SSW,6.9,-,N/A,,Overcast,210,2012-12-04 19:35:00
2:55 PM,62.6,53.6,72,30.08,10.0,SSW,4.6,-,N/A,,Overcast,210,2012-12-04 19:55:00
3:15 PM,62.6,53.6,72,30.07,10.0,SW,4.6,-,N/A,Rain,Light Rain,220,2012-12-04 20:15:00
3:35 PM,60.8,53.6,77,30.08,7.0,SW,4.6,-,N/A,Rain,Light Rain,220,2012-12-04 20:35:00
3:55 PM,60.8,55.4,82,30.07,10.0,Calm,Calm,-,N/A,,Overcast,0,2012-12-04 20:55:00
4:15 PM,60.8,55.4,82,30.07,10.0,Calm,Calm,-,N/A,,Overcast,0,2012-12-04 21:15:00
4:35 PM,62.6,53.6,72,30.07,10.0,SSW,4.6,-,N/A,,Overcast,200,2012-12-04 21:35:00
4:55 PM,62.6,53.6,72,30.07,10.0,SSW,6.9,-,N/A,,Overcast,200,2012-12-04 21:55:00
5:15 PM,62.6,53.6,72,30.06,10.0,SSW,3.5,-,N/A,,Overcast,200,2012-12-04 22:15:00
5:55 PM,60.8,53.6,77,30.06,10.0,SW,4.6,-,N/A,,Overcast,220,2012-12-04 22:55:00
6:15 PM,60.8,53.6,77,30.07,5.0,SSW,5.8,-,N/A,Rain,Light Rain,210,2012-12-04 23:15:00
6:35 PM,60.8,53.6,77,30.06,10.0,SSW,5.8,-,N/A,,Overcast,210,2012-12-04 23:35:00
6:55 PM,60.8,53.6,77,30.06,10.0,SW,6.9,-,N/A,,Overcast,220,2012-12-04 23:55:00
7:15 PM,59.0,53.6,82,30.06,10.0,SW,4.6,-,N/A,,Overcast,220,2012-12-05 00:15:00
7:35 PM,59.0,53.6,82,30.05,10.0,SSW,6.9,-,N/A,,Overcast,210,2012-12-05 00:35:00
7:55 PM,60.8,53.6,77,30.06,10.0,WSW,6.9,-,N/A,,Overcast,240,2012-12-05 00:55:00
8:15 PM,59.0,53.6,82,30.09,7.0,WSW,8.1,-,N/A,Rain,Light Rain,250,2012-12-05 01:15:00
8:35 PM,59.0,53.6,82,30.11,7.0,West,11.5,20.7,N/A,Rain,Light Rain,270,2012-12-05 01:35:00
8:55 PM,53.6,50.0,88,30.14,5.0,NNW,6.9,-,N/A,Rain,Rain,330,2012-12-05 01:55:00
9:15 PM,50.0,46.4,87,30.16,10.0,NW,6.9,18.4,N/A,Rain,Light Rain,320,2012-12-05 02:15:00
9:35 PM,46.4,44.6,93,30.18,10.0,North,4.6,-,N/A,Rain,Light Rain,360,2012-12-05 02:35:00
9:55 PM,46.4,42.8,87,30.18,7.0,North,5.8,-,N/A,Rain,Light Rain,350,2012-12-05 02:55:00
10:15 PM,44.6,42.8,93,30.19,10.0,Calm,Calm,-,N/A,Rain,Light Rain,0,2012-12-05 03:15:00
10:35 PM,44.6,42.8,93,30.20,7.0,Calm,Calm,-,N/A,Rain,Rain,0,2012-12-05 03:35:00
10:55 PM,44.6,42.8,93,30.21,7.0,Calm,Calm,-,N/A,Rain,Rain,0,2012-12-05 03:55:00
11:15 PM,44.6,42.8,93,30.21,10.0,Calm,Calm,-,N/A,Rain,Light Rain,0,2012-12-05 04:15:00
11:35 PM,44.6,42.8,93,30.22,10.0,Calm,Calm,-,N/A,Rain,Light Rain,0,2012-12-05 04:35:00
11:55 PM,44.6,42.8,93,30.22,10.0,Calm,Calm,-,N/A,Rain,Light Rain,0,2012-12-05 04:55:00